Theta_e
307 308 308 309 310 312 312 312 313 313 313 314 313 311 309 307 307 304 299 296 294 292 293 291 289 290 289 289 289 288 287 287 285 286 286 287 286 287 290 291 290 290 291
306 308 308 309 310 310 309 309 309 309 309 309 307 306 304 301 298 294 293 291 290 289 290 289 289 290 289 289 288 286 286 285 285 284 285 285 286 288 288 288 289 290 289
304 305 305 305 306 305 305 305 303 303 301 301 300 297 295 293 292 291 290 290 290 290 290 290 289 289 287 287 286 286 285 286 285 284 284 287 286 287 287 289 288 289 289
300 300 299 298 299 298 298 296 294 294 293 292 292 292 291 291 291 290 290 290 291 290 289 289 288 288 286 286 286 286 286 286 287 286 286 286 287 288 288 286 286 287 286
297 297 296 295 295 293 293 292 293 292 291 291 291 291 291 291 291 291 291 291 289 287 287 286 286 287 288 287 287 288 287 286 286 286 285 286 286 286 285 286 284 285 287
295 294 294 293 293 292 292 291 292 292 292 292 292 292 292 293 294 294 291 288 287 285 284 284 286 288 288 287 287 288 288 286 286 286 285 284 285 286 285 284 284 282 280
292 293 292 293 292 291 291 290 288 288 288 288 289 291 290 291 294 292 289 285 285 284 284 284 285 286 285 285 285 286 287 287 287 287 285 285 284 285 285 284 283 283 282
291 292 291 291 290 289 289 287 286 286 286 285 285 285 285 287 290 289 287 285 285 285 285 285 285 285 284 286 286 287 287 287 287 286 286 285 286 287 286 286 285 285 285
290 290 290 290 289 288 287 286 287 287 286 285 286 286 286 287 288 287 286 285 284 284 284 285 285 284 285 287 287 286 285 285 285 285 286 287 287 287 286 285 283 282 280
289 289 289 288 288 287 287 286 285 286 286 287 286 288 289 288 289 287 286 285 284 284 285 284 284 285 286 286 285 284 282 282 284 285 285 285 285 285 284 284 284 280 279
289 289 289 289 288 287 286 286 286 286 286 286 286 286 288 289 288 288 286 286 285 284 283 283 284 284 284 284 284 283 282 285 284 283 283 284 284 285 285 285 285 282 279
288 287 287 288 288 288 286 286 285 285 284 283 283 283 284 286 286 287 287 286 285 283 282 283 284 283 282 282 283 283 284 284 282 282 282 282 283 283 284 284 283 283 283
289 288 288 288 287 285 284 284 283 283 283 282 281 281 282 283 285 285 285 284 284 283 283 283 281 281 281 281 282 282 282 282 281 281 281 282 283 283 282 282 284 284 283
288 287 285 284 284 284 284 284 283 283 282 281 281 281 282 283 284 285 284 284 283 283 282 282 280 280 279 280 281 281 281 281 281 281 281 281 282 282 281 283 281 281 280
285 284 284 283 282 282 283 283 282 283 283 281 282 282 281 281 283 284 283 283 283 282 281 280 280 280 280 280 280 280 281 281 280 280 280 280 280 280 281 283 281 281 279
283 283 283 283 283 284 284 285 286 286 285 284 283 283 282 283 283 283 282 282 281 281 278 278 278 279 279 279 279 279 280 279 280 279 279 279 278 278 280 281 283 280 279
283 283 283 283 283 283 283 282 282 282 283 282 282 282 282 282 282 281 281 280 279 279 277 278 278 278 278 278 279 279 279 279 278 277 278 278 278 279 280 280 281 281 280
283 283 282 282 282 281 280 280 280 279 278 278 278 280 281 281 280 280 279 278 277 277 277 277 278 278 278 278 278 278 278 278 278 278 278 278 279 279 278 279 280 279 279
283 282 281 281 280 280 279 279 279 278 278 278 278 278 278 279 279 278 277 276 275 276 277 277 278 278 278 278 278 278 277 277 277 278 278 277 278 279 279 280 280 281 281
282 281 281 280 280 279 278 278 278 277 277 277 277 277 278 279 278 277 276 276 276 276 277 277 278 278 278 278 278 277 277 277 278 278 279 279 279 280 279 280 280 281 281
282 282 281 280 279 279 278 278 278 277 277 277 276 277 278 278 277 276 276 276 276 276 277 277 278 278 279 278 278 277 277 277 278 278 279 279 280 279 280 280 281 281 281
282 282 280 279 278 278 278 278 277 277 276 276 277 276 277 277 276 276 276 276 277 277 277 277 278 278 279 278 277 277 277 277 278 279 279 279 279 280 279 280 280 282 282
281 279 278 278 278 278 278 277 276 276 276 276 276 276 276 276 275 276 276 276 277 277 277 277 277 277 278 278 278 278 276 277 278 279 278 278 278 279 280 280 282 283 283
280 278 278 278 278 278 278 277 276 276 276 276 276 275 275 275 275 275 275 276 276 276 277 276 276 276 276 276 277 278 279 278 278 278 277 277 278 279 281 282 283 283 283
279 278 277 277 277 278 276 276 276 276 275 275 275 275 275 275 275 275 275 276 276 275 275 276 276 276 276 275 275 275 277 279 280 281 283 283 283 283 283 284 283 284 284
277 277 277 277 277 277 276 275 276 276 276 276 275 275 275 275 275 275 275 275 275 275 274 275 275 275 275 275 276 277 281 283 284 285 285 285 285 284 284 284 284 284 284
Wind_Speed
9 8 7 6 7 6 6 5 6 5 4 4 4 5 6 6 7 7 7 9 10 10 10 9 10 10 4 6 5 5 4 3 1 0 1 4 5 8 9 8 8 10 10
8 7 6 6 6 6 6 6 5 5 3 2 2 3 5 6 7 8 9 9 12 12 12 11 11 7 7 6 5 5 4 3 2 4 4 3 5 7 9 11 9 8 10
8 7 8 8 7 8 7 7 7 6 5 5 5 6 8 8 9 9 11 12 12 11 9 9 9 8 7 4 3 3 2 1 3 3 5 4 6 6 8 10 10 10 9
8 9 9 9 9 8 9 10 10 10 10 10 9 9 10 10 10 11 11 14 12 11 9 10 8 7 6 5 3 2 3 4 5 6 6 5 6 6 7 9 9 8 9
8 9 8 8 9 10 11 11 12 12 11 10 11 11 10 10 8 11 9 10 12 11 9 7 7 7 7 5 3 3 3 3 4 5 6 6 6 6 8 8 9 9 11
7 8 9 10 9 10 11 11 11 11 11 12 12 12 11 9 18 19 11 9 10 9 8 8 5 6 4 2 1 4 5 6 5 5 6 8 9 7 7 7 9 9 9
6 8 9 10 10 10 10 12 12 11 11 12 12 11 12 12 19 18 15 7 8 8 8 7 5 4 2 3 4 6 5 6 7 7 9 9 9 8 7 8 9 8 10
8 9 9 11 11 11 10 10 10 8 8 8 10 10 10 9 18 17 13 8 8 8 7 6 4 2 2 4 5 4 5 5 5 6 8 9 8 8 8 8 11 12 12
9 9 9 9 9 9 9 9 8 10 9 9 8 8 8 8 11 10 8 8 6 5 4 3 3 2 3 6 6 4 6 6 6 8 10 12 13 14 12 8 8 8 9
9 8 8 9 8 9 8 9 8 9 8 7 8 7 10 8 9 9 6 3 4 3 3 3 1 5 5 6 6 5 6 6 5 7 6 8 8 8 8 7 6 7 7
8 8 8 8 8 8 8 7 7 8 8 8 9 7 6 5 8 7 6 4 3 2 1 1 1 6 7 6 6 5 6 8 5 7 6 5 6 5 4 5 6 6 8
8 9 8 8 7 7 9 7 8 7 8 7 6 5 4 5 6 7 7 7 4 1 2 2 2 7 7 5 5 6 7 7 5 5 5 6 5 6 6 7 9 9 9
10 9 8 8 8 7 8 7 6 5 4 4 4 4 4 3 3 6 6 6 4 3 3 4 6 5 5 3 4 5 6 4 4 5 6 6 6 7 9 9 8 9 10
9 9 8 8 8 6 5 4 4 3 3 3 3 3 3 2 1 1 2 1 1 2 1 3 4 4 3 4 4 3 3 4 5 5 6 7 7 7 8 8 9 9 10
9 8 7 6 6 6 5 4 4 4 3 3 3 2 1 1 2 4 5 4 4 5 5 3 2 2 3 3 3 4 4 4 4 5 6 7 7 7 8 7 8 8 9
9 6 5 5 5 4 5 6 10 9 8 7 3 2 1 3 2 4 5 6 6 5 3 3 3 3 4 4 5 5 4 5 5 6 7 7 7 8 8 8 7 8 10
7 7 5 5 4 4 4 4 4 5 6 6 4 3 3 3 3 4 5 5 4 3 3 3 3 3 4 5 5 5 6 6 7 7 7 7 8 8 10 9 9 9 10
7 8 5 4 4 4 3 3 2 2 2 2 1 2 3 2 3 5 5 5 2 2 3 3 4 4 4 5 6 6 7 7 7 7 8 8 8 8 8 9 9 11 11
7 5 5 4 4 4 3 3 2 2 1 1 1 2 2 2 3 3 3 3 3 3 3 4 4 4 5 6 6 7 8 8 8 8 8 8 8 8 9 9 10 19 19
6 8 7 5 5 4 3 3 3 2 2 2 2 2 2 3 3 3 3 3 4 4 4 5 5 5 6 6 6 7 7 8 8 7 8 8 8 8 9 10 10 12 12
6 7 8 5 4 4 4 4 3 3 2 3 3 3 6 4 4 4 4 4 4 4 5 5 6 6 6 6 7 7 8 8 8 8 8 9 9 9 10 12 12 13 13
7 7 6 5 5 5 4 3 3 3 3 3 3 3 5 4 4 4 5 5 5 5 5 6 6 6 6 7 8 8 9 9 9 8 9 9 9 9 11 11 13 13 12
7 7 6 5 5 6 5 4 3 3 3 3 3 4 3 4 4 5 5 6 6 6 6 6 7 7 7 7 8 8 9 9 9 9 10 10 10 10 11 13 13 11 12
8 8 7 6 5 5 5 4 4 4 4 4 4 4 4 4 5 6 6 6 6 7 7 7 7 9 9 8 8 9 9 9 8 9 14 11 12 14 12 12 11 15 14
7 7 7 7 6 6 5 5 4 4 4 4 5 5 5 5 6 6 6 6 7 7 8 8 7 9 11 12 13 15 15 21 16 17 11 13 14 16 13 11 14 13 16
8 7 7 6 6 5 5 4 5 4 4 4 5 5 5 5 6 6 6 7 7 7 9 8 10 12 14 12 14 17 21 22 19 22 15 11 10 10 10 14 18 14 16
Wind_Direction
9 9 6 2 359 355 354 347 336 321 290 254 215 191 179 171 168 153 132 130 124 117 122 109 109 107 102 98 93 90 88 80 123 194 242 230 228 245 265 272 292 287 287
4 10 16 14 13 13 14 13 8 1 351 315 167 155 144 138 130 131 127 124 125 122 121 123 108 121 103 93 97 106 105 113 135 226 219 232 229 280 292 288 285 292 290
18 25 32 28 33 34 35 39 41 39 45 64 99 114 121 115 116 113 115 110 107 105 107 103 116 118 105 104 107 115 107 118 204 236 251 239 242 251 289 295 294 291 286
41 45 47 40 42 50 52 53 57 62 65 71 73 81 89 95 97 106 109 107 101 95 96 101 103 102 110 113 101 127 172 214 228 248 261 286 282 283 278 279 295 307 298
53 57 55 51 48 56 59 60 62 70 74 74 79 81 83 88 93 89 93 102 105 99 86 86 80 85 106 139 156 188 211 254 262 265 272 277 286 287 295 306 297 300 302
63 65 64 61 60 63 66 67 72 70 73 76 76 75 74 74 90 93 91 90 89 93 96 84 91 107 90 80 216 243 249 256 266 277 289 276 282 296 300 295 305 307 314
77 76 72 79 71 64 76 76 73 67 64 59 59 70 72 77 86 84 80 69 75 84 97 108 125 123 191 242 254 270 261 274 280 292 285 287 293 297 316 289 293 288 278
74 72 76 75 82 84 80 75 69 62 65 75 68 65 68 74 82 85 85 86 89 92 97 100 102 91 267 278 260 267 275 267 276 279 275 279 282 285 286 272 288 290 288
86 78 78 90 87 85 75 77 86 86 74 69 70 71 78 92 102 98 103 85 91 95 88 80 50 309 292 282 293 265 285 289 274 267 274 284 285 288 289 292 280 293 297
87 86 79 94 82 84 77 76 71 78 80 81 76 79 84 79 78 69 78 125 113 96 78 58 12 316 313 329 308 292 283 291 297 288 289 286 284 285 281 266 286 284 293
92 84 81 80 83 86 85 78 83 89 94 95 96 90 94 108 101 97 66 61 59 44 13 341 334 321 326 313 302 285 281 302 310 293 302 304 300 294 287 285 285 274 274
94 90 87 91 96 94 100 110 110 112 108 104 101 93 75 67 68 66 55 46 50 16 326 312 316 330 321 319 298 303 311 314 304 308 304 300 306 304 306 309 299 284 270
101 102 106 113 109 107 112 113 109 110 115 119 118 115 106 89 73 53 41 29 43 345 340 353 320 319 314 279 315 319 311 297 300 300 303 304 311 311 308 294 284 280 265
120 120 119 113 110 107 104 102 114 120 115 108 103 95 96 109 59 22 358 354 324 303 255 302 330 309 289 299 302 301 305 306 309 302 304 305 303 297 299 302 304 308 304
127 125 117 112 112 104 84 76 90 65 51 96 82 81 61 84 22 5 355 341 348 348 318 308 305 323 326 327 319 312 307 302 300 306 299 294 295 300 300 303 303 297 295
136 132 129 127 125 122 124 113 80 88 90 93 98 41 100 343 9 8 350 354 338 354 288 313 328 332 325 327 317 316 312 300 300 304 294 288 292 298 299 302 294 302 294
141 140 137 143 144 140 135 132 137 108 83 75 65 43 17 358 31 356 353 343 336 317 303 327 314 319 319 311 306 306 306 307 309 290 291 287 289 289 299 300 298 297 297
148 150 148 154 156 157 161 168 179 204 211 177 100 356 12 15 4 347 351 311 294 280 299 300 303 309 309 305 304 303 304 301 297 296 291 285 287 291 293 293 297 304 299
158 159 158 156 157 157 157 156 153 170 204 248 271 214 351 322 319 331 333 305 301 287 290 289 295 298 301 301 300 299 295 292 292 291 294 289 287 287 286 286 288 301 304
168 162 160 163 158 165 168 175 180 197 222 248 263 284 292 280 281 301 293 284 279 279 284 282 288 290 294 296 296 294 294 293 291 288 287 287 284 283 282 285 285 291 296
167 164 170 168 174 180 186 191 186 209 232 248 263 264 285 299 297 295 294 285 279 280 281 281 286 286 289 292 293 291 287 284 281 280 281 286 289 286 288 292 287 290 291
169 168 170 179 179 185 190 186 195 215 233 253 264 263 276 275 276 280 282 280 280 280 279 277 280 283 288 291 294 291 288 284 284 283 283 284 285 283 288 283 288 287 285
167 167 172 181 188 183 182 195 207 222 240 257 270 272 264 267 271 277 281 281 279 279 277 274 276 280 281 282 283 279 277 276 280 286 284 282 281 286 283 283 286 292 300
170 177 182 184 186 192 201 204 211 229 249 257 263 265 268 274 276 279 280 281 283 284 281 276 273 276 282 283 284 278 272 271 275 274 275 271 274 280 273 283 291 299 292
174 181 188 186 193 198 204 205 211 228 239 251 262 265 269 270 274 279 280 281 282 284 282 280 274 275 276 278 277 278 279 286 282 272 272 271 277 285 288 290 292 292 293
179 188 192 189 196 197 204 205 216 226 238 248 254 262 269 271 275 277 280 281 280 281 285 280 275 276 280 282 281 283 291 297 299 297 291 283 287 289 292 294 296 295 293